GW4413 Weather Reports


time (UTC)temp
C
wind
direction
speed
KPH
gust
KPH
rain 1hr
cm
rain 24hr
cm
rain mn
cm
humidity
%
barometer
mb
20260503225009 23 331 0.0 3.2 0.00 0.00 0.00 38 1012.3
20260503224519 23 331 0.0 4.8 0.00 0.00 0.00 39 1012.4
20260503224008 23 18 0.0 4.8 0.00 0.00 0.00 39 1012.4
20260503223508 23 105 0.0 3.2 0.00 0.00 0.00 38 1012.5
20260503223021 22 323 0.0 3.2 0.00 0.00 0.00 40 1012.6
20260503222503 22 46 0.0 3.2 0.00 0.00 0.00 38 1012.7
20260503222003 22 303 1.6 3.2 0.00 0.00 0.00 41 1012.8
20260503221524 22 105 0.0 3.2 0.00 0.00 0.00 39 1012.8
20260503221007 22 92 0.0 3.2 0.00 0.00 0.00 38 1012.9
20260503220502 22 214 0.0 3.2 0.00 0.00 0.00 38 1013.0
20260503220026 22 151 0.0 3.2 0.00 0.00 0.00 39 1013.1
20260503215507 22 330 0.0 3.2 0.00 0.00 0.00 39 1013.1
20260503215003 22 330 0.0 3.2 0.00 0.00 0.00 39 1013.2
20260503214526 22 331 0.0 3.2 0.00 0.00 0.00 39 1013.2
20260503214003 22 331 0.0 4.8 0.00 0.00 0.00 40 1013.3
20260503213503 22 330 0.0 4.8 0.00 0.00 0.00 40 1013.4
20260503213022 22 303 0.0 4.8 0.00 0.00 0.00 38 1013.4
20260503212506 22 360 1.6 4.8 0.00 0.00 0.00 38 1013.3
20260503212002 22 323 0.0 4.8 0.00 0.00 0.00 38 1013.4
20260503211522 22 313 0.0 3.2 0.00 0.00 0.00 37 1013.5
20260503211003 22 300 0.0 3.2 0.00 0.00 0.00 37 1013.5
20260503210507 22 348 0.0 3.2 0.00 0.00 0.00 38 1013.6
20260503210023 22 310 0.0 4.8 0.00 0.00 0.00 38 1013.6
20260503205503 22 351 1.6 4.8 0.00 0.00 0.00 39 1013.6
20260503205002 22 305 0.0 3.2 0.00 0.00 0.00 40 1013.7
20260503204522 22 325 0.0 3.2 0.00 0.00 0.00 40 1013.7
20260503204006 22 293 0.0 3.2 0.00 0.00 0.00 42 1013.7
20260503203504 22 330 0.0 3.2 0.00 0.00 0.00 41 1013.7
20260503203024 22 330 0.0 4.8 0.00 0.00 0.00 41 1013.7
20260503202503 22 330 0.0 4.8 0.00 0.00 0.00 40 1013.7
20260503202004 22 350 1.6 3.2 0.00 0.00 0.00 41 1013.8
20260503201524 21 350 0.0 3.2 0.00 0.00 0.00 44 1013.8
20260503201003 21 350 0.0 3.2 0.00 0.00 0.00 43 1013.8
20260503200503 21 325 0.0 3.2 0.00 0.00 0.00 41 1013.9
20260503200024 21 325 0.0 3.2 0.00 0.00 0.00 42 1014.0
20260503195508 21 325 0.0 3.2 0.00 0.00 0.00 44 1014.0
20260503195003 21 325 0.0 3.2 0.00 0.00 0.00 43 1014.1
20260503194524 21 325 0.0 4.8 0.00 0.00 0.00 42 1014.2
20260503194003 21 5 0.0 4.8 0.00 0.00 0.00 43 1014.1
20260503193503 21 142 0.0 3.2 0.00 0.00 0.00 43 1014.2
20260503193023 21 167 0.0 3.2 0.00 0.00 0.00 41 1014.3
20260503192503 21 88 0.0 4.8 0.00 0.00 0.00 42 1014.4
20260503192010 21 299 0.0 4.8 0.00 0.00 0.00 43 1014.5
20260503191534 21 352 0.0 3.2 0.00 0.00 0.00 44 1014.5
20260503191004 20 343 0.0 3.2 0.00 0.00 0.00 46 1014.5
20260503190508 20 343 0.0 3.2 0.00 0.00 0.00 45 1014.6
20260503190021 20 270 0.0 3.2 0.00 0.00 0.00 45 1014.6
20260503185503 20 352 1.6 3.2 0.00 0.00 0.00 45 1014.7
20260503185014 20 5 0.0 3.2 0.00 0.00 0.00 47 1014.7
20260503184522 20 5 0.0 4.8 0.00 0.00 0.00 47 1014.7
20260503184007 20 329 1.6 4.8 0.00 0.00 0.00 48 1014.8
20260503183508 20 255 0.0 3.2 0.00 0.00 0.00 47 1014.8
20260503183021 19 270 0.0 3.2 0.00 0.00 0.00 49 1014.9
20260503182505 19 309 0.0 3.2 0.00 0.00 0.00 50 1014.9
20260503182011 19 302 0.0 3.2 0.00 0.00 0.00 54 1014.9
20260503181522 18 302 0.0 3.2 0.00 0.00 0.00 53 1015.0
20260503181005 18 302 0.0 3.2 0.00 0.00 0.00 53 1015.0
20260503180514 18 302 0.0 3.2 0.00 0.00 0.00 54 1015.0
20260503180032 18 279 0.0 3.2 0.00 0.00 0.00 54 1015.0
20260503175504 18 290 0.0 3.2 0.00 0.00 0.00 54 1015.1
20260503175008 17 350 0.0 3.2 0.00 0.00 0.00 57 1015.1
20260503174523 17 350 0.0 3.2 0.00 0.00 0.00 58 1015.2
20260503174008 17 350 0.0 3.2 0.00 0.00 0.00 61 1015.2
20260503173021 17 350 0.0 4.8 0.00 0.00 0.00 59 1015.3
20260503172506 17 310 0.0 4.8 0.00 0.00 0.00 59 1015.3
20260503172010 17 309 0.0 4.8 0.00 0.00 0.00 59 1015.3
20260503171525 17 310 0.0 4.8 0.00 0.00 0.00 59 1015.3
20260503171003 17 352 0.0 3.2 0.00 0.00 0.00 59 1015.3
20260503170511 17 352 0.0 4.8 0.00 0.00 0.00 59 1015.3
20260503151004 15 298 0.0 3.2 0.00 0.00 0.00 66 1015.5
20260503150503 15 298 0.0 3.2 0.00 0.00 0.00 66 1015.6
20260503131005 16 298 0.0 0.0 0.00 0.00 0.00 61 1015.2
20260503130510 16 298 0.0 0.0 0.00 0.00 0.00 60 1015.2
20260503110511 17 298 0.0 3.2 0.00 0.00 0.00 51 1015.4
20260503090504 16 298 0.0 1.6 0.00 0.00 0.00 60 1015.3
20260503081517 16 298 0.0 0.0 0.00 0.00 0.00 59 1015.3
20260503080504 17 298 0.0 0.0 0.00 0.00 0.00 54 1015.3
20260503072505 17 298 0.0 1.6 0.00 0.00 0.00 51 1015.2
20260503071514 16 298 0.0 0.0 0.00 0.00 0.00 53 1015.3
20260503071005 16 298 0.0 1.6 0.00 0.00 0.00 55 1015.2
20260503070503 16 298 0.0 1.6 0.00 0.00 0.00 54 1015.2
20260503055003 18 298 0.0 1.6 0.00 0.00 0.00 47 1015.2
20260503054520 18 298 0.0 1.6 0.00 0.00 0.00 47 1015.2
20260503054006 17 298 0.0 1.6 0.00 0.00 0.00 49 1015.2
20260503053504 17 298 0.0 1.6 0.00 0.00 0.00 50 1015.2
20260503052508 17 298 0.0 1.6 0.00 0.00 0.00 50 1015.3
20260503052003 17 298 0.0 1.6 0.00 0.00 0.00 50 1015.2
20260503051522 17 298 0.0 1.6 0.00 0.00 0.00 52 1015.2
20260503051008 17 298 0.0 1.6 0.00 0.00 0.00 53 1015.2
20260503050508 17 298 0.0 1.6 0.00 0.00 0.00 52 1015.2
20260503050022 17 298 0.0 1.6 0.00 0.00 0.00 53 1015.2
20260503045507 17 298 0.0 1.6 0.00 0.00 0.00 52 1015.1
20260503045008 17 298 0.0 1.6 0.00 0.00 0.00 52 1015.1
20260503044518 17 298 0.0 1.6 0.00 0.00 0.00 51 1015.0
20260503043506 17 298 0.0 1.6 0.00 0.00 0.00 52 1014.9
20260503043035 17 298 0.0 1.6 0.00 0.00 0.00 53 1014.9
20260503042506 17 298 0.0 1.6 0.00 0.00 0.00 51 1014.7
20260503041525 17 298 0.0 3.2 0.00 0.00 0.00 51 1014.8
20260503041007 17 298 0.0 3.2 0.00 0.00 0.00 52 1014.8
20260503040507 17 298 0.0 1.6 0.00 0.00 0.00 52 1014.7
20260503040022 17 298 0.0 1.6 0.00 0.00 0.00 52 1014.7
20260503035507 17 298 0.0 1.6 0.00 0.00 0.00 53 1014.6
20260503035008 17 298 0.0 1.6 0.00 0.00 0.00 52 1014.6
20260503034523 17 298 0.0 1.6 0.00 0.00 0.00 53 1014.6
20260503034006 18 298 0.0 1.6 0.00 0.00 0.00 53 1014.5
20260503033512 18 298 0.0 1.6 0.00 0.00 0.00 52 1014.5
20260503033031 18 298 0.0 0.0 0.00 0.00 0.00 53 1014.4
20260503032009 18 298 0.0 1.6 0.00 0.00 0.00 52 1014.3
20260503031007 18 298 0.0 1.6 0.00 0.00 0.00 52 1014.3
20260503025507 18 298 0.0 1.6 0.00 0.00 0.00 51 1014.3
20260503024008 18 298 0.0 1.6 0.00 0.00 0.00 51 1014.2
20260503023510 19 298 0.0 1.6 0.00 0.00 0.00 51 1014.2
20260503023024 19 298 0.0 1.6 0.00 0.00 0.00 52 1014.2
20260503022007 19 298 0.0 3.2 0.00 0.00 0.00 51 1014.2
20260503021539 19 298 0.0 3.2 0.00 0.00 0.00 51 1014.2
20260503021007 19 298 0.0 1.6 0.00 0.00 0.00 51 1014.3
20260503020511 20 298 0.0 1.6 0.00 0.00 0.00 51 1014.3
20260503020024 20 298 0.0 1.6 0.00 0.00 0.00 51 1014.3
20260503015513 20 298 0.0 1.6 0.00 0.00 0.00 51 1014.4
20260503014006 20 298 0.0 1.6 0.00 0.00 0.00 49 1014.5
20260503013508 20 298 0.0 3.2 0.00 0.00 0.00 49 1014.6
20260503013026 20 298 0.0 3.2 0.00 0.00 0.00 48 1014.6
20260503012507 20 298 0.0 3.2 0.00 0.00 0.00 49 1014.7
20260503012015 20 298 0.0 3.2 0.00 0.00 0.00 47 1014.8
20260503011522 20 298 0.0 3.2 0.00 0.00 0.00 46 1014.9
20260503010504 20 288 0.0 3.2 0.00 0.00 0.00 46 1014.8
20260503010021 20 349 0.0 3.2 0.00 0.00 0.00 46 1014.8
20260503005507 20 349 0.0 3.2 0.00 0.00 0.00 45 1014.8
20260503005003 21 74 0.0 3.2 0.00 0.00 0.00 44 1014.8
20260503004006 21 321 0.0 4.8 0.00 0.00 0.00 44 1014.8
20260503003503 21 299 0.0 3.2 0.00 0.00 0.00 45 1014.7
20260503002507 21 287 0.0 1.6 0.00 0.00 0.00 44 1014.7
20260503002011 21 287 0.0 3.2 0.00 0.00 0.00 43 1014.7
20260503001526 21 282 0.0 3.2 0.00 0.00 0.00 43 1014.8
20260503001007 21 282 0.0 3.2 0.00 0.00 0.00 44 1014.9
20260503000509 21 282 0.0 3.2 0.00 0.00 0.00 44 1014.9
20260503000024 21 236 0.0 3.2 0.00 0.00 0.00 43 1014.9
20260502235510 21 319 0.0 3.2 0.00 0.00 0.00 42 1015.0
20260502235010 21 324 0.0 3.2 0.00 0.00 0.00 43 1015.0
20260502234007 21 332 0.0 3.2 0.00 0.00 0.00 44 1015.1
20260502232507 21 294 0.0 3.2 0.00 0.00 0.00 43 1015.2
20260502232012 21 257 0.0 3.2 0.00 0.00 0.00 45 1015.3
20260502231524 20 34 0.0 4.8 0.00 0.00 0.00 46 1015.4
20260502231007 20 34 0.0 4.8 0.00 0.00 0.00 45 1015.4
20260502230510 20 17 0.0 3.2 0.00 0.00 0.00 48 1015.5
20260502230025 20 323 0.0 3.2 0.00 0.00 0.00 47 1015.5